Regional Weather Roundup
Issued by NWS Goodland, KS

Home | Current Version | Previous Version | Graphics & Text | Print | Product List | Glossary On
Versions: 1 2 3 4 5 6 7 8 9 10 11 12 13 14 15 16 17 18 19 20 21 22 23 24 25 26 27 28 29 30 31 32 33 34 35 36 37 38 39 40 41 42 43 44 45 46 47 48 49 50
000
ASUS43 KGLD 191259
RWRGLD

GOODLAND FORECAST AREA HOURLY WEATHER ROUNDUP
NATIONAL WEATHER SERVICE GOODLAND KS
600 AM MST SUN FEB 19 2017

...OFFICIAL OBSERVATIONS...

CITY           SKY/WX    TMP DP  RH WIND       PRES   REMARKS
GOODLAND KS    CLOUDY    45  36  70 S16       29.70R
HILL CITY KS   PTCLDY    46  45  96 S6        29.80S FOG
IMPERIAL NEB   CLOUDY    45  34  65 S15       29.67S
MCCOOK NEB     CLOUDY    49  43  80 SW8       29.73R
AKRON CO       CLOUDY    48  28  46 S16       29.65R
BURLINGTON CO  CLOUDY    50  34  54 S18       29.69R
LIMON CO       CLOUDY    34  26  72 E5        29.73R
$$

...UNOFFICIAL OBSERVATIONS...

CITY           SKY/WX    TMP DP  RH WIND       PRES   REMARKS
LENORA KS        N/A     45  32  60 S10         N/A
NORTON KS      CLEAR     46  41  81 S9        29.77
SHARON SPRINGS   N/A     43  37  80 S14         N/A
TRENTON NEB      N/A     45  32  60 S7          N/A
KIT CARSON CO    N/A     44  34  67 MISG        N/A
YUMA CO        FAIR      41  28  60 S12       29.65S
$$



USA.gov is the U.S. government's official web portal to all federal, state and local government web resources and services.